Darstellungsparameter: Aktuell verwendete Einstellungen:
Skalierung der Graphiken ... ?
xyx+y,   Skalierungsfaktor:      Skalierung: Modus: x, Faktor: 1
Darstellungszeitraum ... ?
Vom - - bis: - -   Zeitraum: 29.04.2020 - 01.05.2020
Min/Max/Avg-Anzeige ... ?
Zeige MMA aktuell
Zeige MMA Monat
Zeige MMA alles
Zeige --A aktuell
Zeige --A Monat
Zeige --A alles
Keine MMA-Anzeige
MMA:
Keine MMA-Graphiken
MMA-Basis: 29.04.2020 - 01.05.2020
Quicknavigation für Darstellung... ?
Tage:      1T, 2T, 3T, 5T -1T -2T -3T -5T +1T +2T +3T +5T
Wochen: 1W, 2W, 3W -1W -2W -3W +1W +2W +3W
Monate: 1M, 3M, 6M -1M -3M -6M +1M +3M +6M
Jahre:    1J, 3J, 5J, 10J -1J -3J -5J -10J +1J +3J +5J +10J
Nutze für die Darstellung ... ?
Originaldaten oder Mittelwerte auf ...
Stundenbasis Tagesbasis Wochenbasis
Monatsbasis Jahresbasis      Datenbasis: Original-Daten
Darstellen als:
Statistik (Auto) Statistik J:M      Darstellung:
Zur Graphik,    zurück zur Übersicht aller Sensoren.
 
Tabellarische Datenbersicht: ?
 
Sensor: Nr:Datum:Temp:Feuchte:
Aussen-T/F 1 29-04-2020 00:03:17 12.2 C 39 %
2 29-04-2020 00:13:17 12.2 C 39 %
3 29-04-2020 00:23:17 12.1 C 39 %
4 29-04-2020 00:33:18 11.8 C 40 %
5 29-04-2020 00:43:18 11.5 C 40 %
6 29-04-2020 00:53:18 11.5 C 40 %
7 29-04-2020 01:03:18 11.5 C 40 %
8 29-04-2020 01:13:18 11.6 C 40 %
9 29-04-2020 01:23:17 11.7 C 40 %
10 29-04-2020 01:33:17 11.6 C 42 %
11 29-04-2020 01:43:17 11.4 C 43 %
12 29-04-2020 01:53:17 11.4 C 44 %
13 29-04-2020 02:03:17 11.4 C 44 %
14 29-04-2020 02:13:17 11.4 C 41 %
15 29-04-2020 02:23:17 12.3 C 37 %
16 29-04-2020 02:33:18 12.6 C 37 %
17 29-04-2020 02:43:18 12.5 C 36 %
18 29-04-2020 02:53:17 12.1 C 36 %
19 29-04-2020 03:03:17 12 C 36 %
20 29-04-2020 03:13:17 11.4 C 39 %
21 29-04-2020 03:23:17 11.5 C 39 %
22 29-04-2020 03:33:17 11.7 C 39 %
23 29-04-2020 03:43:17 12 C 37 %
24 29-04-2020 03:53:17 12.1 C 37 %
25 29-04-2020 04:03:17 11.9 C 39 %
Sensor: Nr:Datum:Temp:Feuchte:
Aussen-T/F 26 29-04-2020 04:13:17 11.9 C 39 %
27 29-04-2020 04:23:17 11.7 C 39 %
28 29-04-2020 04:33:17 11.9 C 38 %
29 29-04-2020 04:43:18 11.6 C 39 %
30 29-04-2020 04:53:17 11.4 C 39 %
31 29-04-2020 05:03:18 11.7 C 39 %
32 29-04-2020 05:13:18 11.5 C 39 %
33 29-04-2020 05:23:18 11.7 C 39 %
34 29-04-2020 05:33:17 11.5 C 39 %
35 29-04-2020 05:43:17 11.4 C 39 %
36 29-04-2020 05:53:17 11.3 C 40 %
37 29-04-2020 06:03:18 11.3 C 40 %
38 29-04-2020 06:13:18 11.5 C 39 %
39 29-04-2020 06:23:17 11.6 C 38 %
40 29-04-2020 06:33:17 11.2 C 39 %
41 29-04-2020 06:43:17 11 C 40 %
42 29-04-2020 06:53:17 11.2 C 40 %
43 29-04-2020 07:03:17 11.5 C 39 %
44 29-04-2020 07:13:17 11.9 C 39 %
45 29-04-2020 07:23:17 12.1 C 37 %
46 29-04-2020 07:33:17 12.3 C 37 %
47 29-04-2020 07:43:17 12.4 C 36 %
48 29-04-2020 07:53:17 12.7 C 36 %
49 29-04-2020 08:03:17 12.9 C 36 %
50 29-04-2020 08:13:17 12.9 C 36 %
Sensor: Nr:Datum:Temp:Feuchte:
Aussen-T/F 51 29-04-2020 08:23:17 12.7 C 36 %
52 29-04-2020 08:33:17 12.6 C 36 %
53 29-04-2020 08:43:17 12.5 C 36 %
54 29-04-2020 08:53:17 13 C 35 %
55 29-04-2020 09:03:17 13.1 C 35 %
56 29-04-2020 09:13:17 13.2 C 35 %
57 29-04-2020 09:23:17 13.5 C 34 %
58 29-04-2020 09:33:17 13.6 C 33 %
59 29-04-2020 09:43:17 13.9 C 32 %
60 29-04-2020 09:53:17 14.1 C 32 %
61 29-04-2020 10:03:17 14.5 C 31 %
62 29-04-2020 10:13:17 14.8 C 30 %
63 29-04-2020 10:23:17 15.1 C 29 %
64 29-04-2020 10:33:17 14.8 C 30 %
65 29-04-2020 10:43:17 15 C 29 %
66 29-04-2020 10:53:17 15.5 C 28 %
67 29-04-2020 11:03:17 16 C 28 %
68 29-04-2020 11:13:17 16 C 28 %
69 29-04-2020 11:23:17 16.3 C 27 %
70 29-04-2020 11:33:18 16.8 C 27 %
71 29-04-2020 11:43:18 16.9 C 25 %
72 29-04-2020 11:53:17 17.1 C 25 %
73 29-04-2020 12:03:18 17.5 C 25 %
74 29-04-2020 12:13:18 16.4 C 25 %
75 29-04-2020 12:23:17 15.5 C 26 %
Sensor: Nr:Datum:Temp:Feuchte:
Aussen-T/F 76 29-04-2020 12:33:17 15.9 C 26 %
77 29-04-2020 12:43:17 16.3 C 25 %
78 29-04-2020 12:53:17 16.2 C 25 %
79 29-04-2020 13:03:17 17.5 C 25 %
80 29-04-2020 13:13:17 16.4 C 25 %
81 29-04-2020 13:23:18 16.1 C 25 %
82 29-04-2020 13:33:18 17.5 C 25 %
83 29-04-2020 13:43:18 17.3 C 25 %
84 29-04-2020 13:53:18 16.6 C 25 %
85 29-04-2020 14:03:18 16.7 C 26 %
86 29-04-2020 14:13:18 15.7 C 26 %
87 29-04-2020 14:23:18 15.9 C 26 %
88 29-04-2020 14:33:17 16.1 C 26 %
89 29-04-2020 14:43:17 19.2 C 22 %
90 29-04-2020 14:53:17 21.1 C 20 %
91 29-04-2020 15:03:17 20.9 C 20 %
92 29-04-2020 15:13:17 22.7 C 20 %
93 29-04-2020 15:23:17 22.3 C 20 %
94 29-04-2020 15:33:17 19.6 C 20 %
95 29-04-2020 15:43:17 18.7 C 20 %
96 29-04-2020 15:53:17 19.2 C 20 %
97 29-04-2020 16:03:17 17.4 C 22 %
98 29-04-2020 16:13:17 17.9 C 22 %
99 29-04-2020 16:23:17 18.4 C 20 %
100 29-04-2020 16:33:17 17.7 C 21 %
Sensor: Nr:Datum:Temp:Feuchte:
Aussen-T/F 101 29-04-2020 16:43:17 20.2 C 20 %
102 29-04-2020 16:53:17 18.2 C 20 %
103 29-04-2020 17:03:17 17.4 C 22 %
104 29-04-2020 17:13:17 16 C 25 %
105 29-04-2020 17:23:17 19.4 C 23 %
106 29-04-2020 17:33:17 21.1 C 20 %
107 29-04-2020 17:43:17 21.2 C 20 %
108 29-04-2020 17:53:17 20.2 C 20 %
109 29-04-2020 18:03:17 21 C 20 %
110 29-04-2020 18:13:18 17.5 C 21 %
111 29-04-2020 18:23:17 17.4 C 21 %
112 29-04-2020 18:33:17 17.7 C 22 %
113 29-04-2020 18:43:17 17.9 C 22 %
114 29-04-2020 18:53:17 17.2 C 23 %
115 29-04-2020 19:03:18 17 C 25 %
116 29-04-2020 19:13:18 17.5 C 24 %
117 29-04-2020 19:23:17 17.5 C 23 %
118 29-04-2020 19:33:17 17.1 C 23 %
119 29-04-2020 19:43:18 16.7 C 24 %
120 29-04-2020 19:53:17 16.1 C 25 %
121 29-04-2020 20:03:18 15.4 C 26 %
122 29-04-2020 20:13:18 15 C 26 %
123 29-04-2020 20:23:18 14.7 C 29 %
124 29-04-2020 20:33:17 14.5 C 29 %
125 29-04-2020 20:43:17 14.5 C 28 %
Sensor: Nr:Datum:Temp:Feuchte:
Aussen-T/F 126 29-04-2020 20:53:18 14.4 C 28 %
127 29-04-2020 21:03:18 13.8 C 30 %
128 29-04-2020 21:13:18 13.2 C 31 %
129 29-04-2020 21:23:17 12.9 C 33 %
130 29-04-2020 21:33:17 13 C 32 %
131 29-04-2020 21:43:17 13.5 C 32 %
132 29-04-2020 21:53:17 13.2 C 32 %
133 29-04-2020 22:03:18 13 C 32 %
134 29-04-2020 22:13:18 13.2 C 33 %
135 29-04-2020 22:23:17 13.5 C 32 %
136 29-04-2020 22:33:17 13.3 C 32 %
137 29-04-2020 22:43:17 13.1 C 32 %
138 29-04-2020 22:53:18 13.3 C 33 %
139 29-04-2020 23:03:18 12.8 C 35 %
140 29-04-2020 23:13:18 12.8 C 35 %
141 29-04-2020 23:23:17 13 C 34 %
142 29-04-2020 23:33:17 13.2 C 33 %
143 29-04-2020 23:43:17 13.2 C 34 %
144 29-04-2020 23:53:18 12.9 C 35 %
145 30-04-2020 00:03:17 13 C 34 %
146 30-04-2020 00:13:17 13.2 C 34 %
147 30-04-2020 00:23:17 13.3 C 33 %
148 30-04-2020 00:33:17 13.2 C 33 %
149 30-04-2020 00:43:17 13.3 C 33 %
150 30-04-2020 00:53:17 13.1 C 33 %
Sensor: Nr:Datum:Temp:Feuchte:
Aussen-T/F 151 30-04-2020 01:03:17 13.1 C 33 %
152 30-04-2020 01:13:17 13.2 C 33 %
153 30-04-2020 01:23:17 13.2 C 33 %
154 30-04-2020 01:33:17 13.4 C 33 %
155 30-04-2020 01:43:17 13.4 C 32 %
156 30-04-2020 01:53:17 13 C 34 %
157 30-04-2020 02:03:17 12 C 37 %
158 30-04-2020 02:13:17 11.8 C 39 %
159 30-04-2020 02:23:17 11.5 C 39 %
160 30-04-2020 02:33:17 11.8 C 38 %
161 30-04-2020 02:43:17 11.7 C 38 %
162 30-04-2020 02:53:17 11.8 C 37 %
163 30-04-2020 03:03:17 11.7 C 37 %
164 30-04-2020 03:13:17 11.2 C 38 %
165 30-04-2020 03:23:17 10.9 C 40 %
166 30-04-2020 03:33:17 10.9 C 40 %
167 30-04-2020 03:43:18 11 C 40 %
168 30-04-2020 03:53:17 11 C 40 %
169 30-04-2020 04:03:17 10.8 C 41 %
170 30-04-2020 04:13:17 10.7 C 41 %
171 30-04-2020 04:23:17 10.6 C 43 %
172 30-04-2020 04:33:18 10.7 C 44 %
173 30-04-2020 04:43:18 10.6 C 44 %
174 30-04-2020 04:53:17 10.7 C 45 %
175 30-04-2020 05:03:17 10.7 C 45 %
Sensor: Nr:Datum:Temp:Feuchte:
Aussen-T/F 176 30-04-2020 05:13:17 10.8 C 45 %
177 30-04-2020 05:23:17 10.8 C 45 %
178 30-04-2020 05:33:17 10.8 C 45 %
179 30-04-2020 05:43:17 10.7 C 45 %
180 30-04-2020 05:53:18 10.8 C 45 %
181 30-04-2020 06:03:17 10.7 C 45 %
182 30-04-2020 06:13:18 10.7 C 45 %
183 30-04-2020 06:23:17 10.7 C 45 %
184 30-04-2020 06:33:17 10.8 C 45 %
185 30-04-2020 06:43:17 10.7 C 45 %
186 30-04-2020 06:53:17 10.8 C 45 %
187 30-04-2020 07:03:17 10.6 C 44 %
188 30-04-2020 07:13:17 10.3 C 42 %
189 30-04-2020 07:23:17 10.2 C 42 %
190 30-04-2020 07:33:17 10.2 C 42 %
191 30-04-2020 07:43:17 10.1 C 42 %
192 30-04-2020 07:53:17 10 C 43 %
193 30-04-2020 08:03:17 9.9 C 42 %
194 30-04-2020 08:13:17 9.8 C 43 %
195 30-04-2020 08:23:17 10 C 43 %
196 30-04-2020 08:33:17 11 C 39 %
197 30-04-2020 08:43:17 10.7 C 40 %
198 30-04-2020 08:53:17 10.9 C 40 %
199 30-04-2020 09:03:17 11.2 C 39 %
200 30-04-2020 09:13:17 11.8 C 37 %
Sensor: Nr:Datum:Temp:Feuchte:
Aussen-T/F 201 30-04-2020 09:23:18 12.1 C 36 %
202 30-04-2020 09:33:17 12.5 C 36 %
203 30-04-2020 09:43:17 12.5 C 36 %
204 30-04-2020 09:53:17 12.7 C 36 %
205 30-04-2020 10:03:17 13.2 C 35 %
206 30-04-2020 10:13:17 13.9 C 35 %
207 30-04-2020 10:23:17 14 C 33 %
208 30-04-2020 10:33:17 13.7 C 32 %
209 30-04-2020 10:43:17 14.4 C 31 %
210 30-04-2020 10:53:18 14 C 31 %
211 30-04-2020 11:03:18 14 C 30 %
212 30-04-2020 11:13:18 14 C 30 %
213 30-04-2020 11:23:17 14 C 31 %
214 30-04-2020 11:33:17 14.5 C 31 %
215 30-04-2020 11:43:17 14.2 C 30 %
216 30-04-2020 11:53:17 14.3 C 30 %
217 30-04-2020 12:03:18 14.5 C 30 %
218 30-04-2020 12:13:18 14.2 C 29 %
219 30-04-2020 12:23:17 14.6 C 29 %
220 30-04-2020 12:33:17 14.4 C 29 %
221 30-04-2020 12:43:17 14.5 C 29 %
222 30-04-2020 12:53:18 15 C 27 %
223 30-04-2020 13:03:17 14.7 C 27 %
224 30-04-2020 13:13:17 14.6 C 27 %
225 30-04-2020 13:23:17 14.6 C 27 %
Sensor: Nr:Datum:Temp:Feuchte:
Aussen-T/F 226 30-04-2020 13:33:17 14.5 C 27 %
227 30-04-2020 13:43:17 15.2 C 26 %
228 30-04-2020 13:53:17 15.9 C 25 %
229 30-04-2020 14:03:18 16.8 C 23 %
230 30-04-2020 14:13:18 16.2 C 21 %
231 30-04-2020 14:23:17 16.6 C 21 %
232 30-04-2020 14:33:18 19.7 C 20 %
233 30-04-2020 14:43:18 18.3 C 20 %
234 30-04-2020 14:53:17 18.1 C 20 %
235 30-04-2020 15:03:18 19.2 C 20 %
236 30-04-2020 15:13:18 19.5 C 20 %
237 30-04-2020 15:23:17 17.4 C 20 %
238 30-04-2020 15:33:17 16.5 C 20 %
239 30-04-2020 15:43:17 15.8 C 20 %
240 30-04-2020 15:53:18 15.9 C 21 %
241 30-04-2020 16:03:17 16.2 C 20 %
242 30-04-2020 16:13:17 16.3 C 20 %
243 30-04-2020 16:23:17 16.7 C 21 %
244 30-04-2020 16:33:17 16.4 C 20 %
245 30-04-2020 16:43:18 16.3 C 21 %
246 30-04-2020 16:53:17 15.9 C 21 %
247 30-04-2020 17:03:17 14.8 C 25 %
248 30-04-2020 17:13:17 12.5 C 33 %
249 30-04-2020 17:23:18 11.8 C 37 %
250 30-04-2020 17:33:17 11.5 C 37 %
Sensor: Nr:Datum:Temp:Feuchte:
Aussen-T/F 251 30-04-2020 17:43:17 10.7 C 40 %
252 30-04-2020 17:53:17 10.8 C 42 %
253 30-04-2020 18:03:17 10.6 C 41 %
254 30-04-2020 18:13:18 10.3 C 42 %
255 30-04-2020 18:23:17 10.2 C 42 %
256 30-04-2020 18:33:17 10.2 C 43 %
257 30-04-2020 18:43:17 10 C 41 %
258 30-04-2020 18:53:17 9.9 C 41 %
259 30-04-2020 19:03:18 9.6 C 41 %
260 30-04-2020 19:13:18 9.5 C 41 %
261 30-04-2020 19:23:17 10 C 40 %
262 30-04-2020 19:33:18 10.1 C 41 %
263 30-04-2020 19:43:18 10 C 41 %
264 30-04-2020 19:53:17 9.9 C 44 %
265 30-04-2020 20:03:17 9.7 C 45 %
266 30-04-2020 20:13:17 9.6 C 45 %
267 30-04-2020 20:23:17 9.4 C 44 %
268 30-04-2020 20:33:18 9 C 44 %
269 30-04-2020 20:43:18 8.6 C 45 %
270 30-04-2020 20:53:17 8.6 C 46 %
271 30-04-2020 21:03:17 8.7 C 46 %
272 30-04-2020 21:13:17 8.8 C 45 %
273 30-04-2020 21:23:17 8.9 C 45 %
274 30-04-2020 21:33:17 9 C 45 %
275 30-04-2020 21:43:18 9 C 45 %
Sensor: Nr:Datum:Temp:Feuchte:
Aussen-T/F 276 30-04-2020 21:53:17 9 C 45 %
277 30-04-2020 22:03:18 8.6 C 45 %
278 30-04-2020 22:13:18 8.4 C 45 %
279 30-04-2020 22:23:18 8.7 C 45 %
280 30-04-2020 22:33:17 8.7 C 45 %
281 30-04-2020 22:43:17 8.6 C 45 %
282 30-04-2020 22:53:18 8.5 C 45 %
283 30-04-2020 23:03:17 8.4 C 45 %
284 30-04-2020 23:13:17 8.3 C 45 %
285 30-04-2020 23:23:17 8.3 C 45 %
286 30-04-2020 23:33:17 8.6 C 45 %
287 30-04-2020 23:43:17 9 C 44 %
288 30-04-2020 23:53:17 9.2 C 43 %
289 01-05-2020 00:03:17 8.9 C 43 %
290 01-05-2020 00:13:17 8.6 C 44 %
291 01-05-2020 00:23:17 8.2 C 44 %
292 01-05-2020 00:33:18 8.4 C 44 %
293 01-05-2020 00:43:18 8.2 C 44 %
294 01-05-2020 00:53:17 7.8 C 45 %
295 01-05-2020 01:03:17 8.1 C 45 %
296 01-05-2020 01:13:18 8.2 C 44 %
297 01-05-2020 01:23:18 8.1 C 43 %
298 01-05-2020 01:33:18 8.1 C 43 %
299 01-05-2020 01:43:18 8.5 C 42 %
300 01-05-2020 01:53:17 8.5 C 41 %
Sensor: Nr:Datum:Temp:Feuchte:
Aussen-T/F 301 01-05-2020 02:03:17 8.1 C 42 %
302 01-05-2020 02:13:18 8 C 42 %
303 01-05-2020 02:23:17 7.7 C 43 %
304 01-05-2020 02:33:17 7.6 C 43 %
305 01-05-2020 02:43:17 7.8 C 43 %
306 01-05-2020 02:53:17 7.7 C 44 %
307 01-05-2020 03:03:17 7.4 C 44 %
308 01-05-2020 03:13:18 7.4 C 46 %
309 01-05-2020 03:23:17 7.9 C 44 %
310 01-05-2020 03:33:17 8.2 C 41 %
311 01-05-2020 03:43:17 8 C 42 %
312 01-05-2020 03:53:18 7.4 C 44 %
313 01-05-2020 04:03:17 7.3 C 45 %
314 01-05-2020 04:13:17 7 C 45 %
315 01-05-2020 04:23:17 7.1 C 46 %
316 01-05-2020 04:33:17 7.3 C 46 %
317 01-05-2020 04:43:17 7.4 C 46 %
318 01-05-2020 04:53:17 7.6 C 46 %
319 01-05-2020 05:03:18 7.8 C 46 %
320 01-05-2020 05:13:18 7.9 C 46 %
321 01-05-2020 05:23:17 8 C 45 %
322 01-05-2020 05:33:18 8 C 45 %
323 01-05-2020 05:43:18 8.6 C 41 %
324 01-05-2020 05:53:17 8.4 C 40 %
325 01-05-2020 06:03:17 8.1 C 41 %
Sensor: Nr:Datum:Temp:Feuchte:
Aussen-T/F 326 01-05-2020 06:13:17 7.8 C 43 %
327 01-05-2020 06:23:17 7.6 C 44 %
328 01-05-2020 06:33:17 7.6 C 45 %
329 01-05-2020 06:43:17 7.4 C 45 %
330 01-05-2020 06:53:17 7 C 45 %
331 01-05-2020 07:03:17 6.8 C 46 %
332 01-05-2020 07:13:17 6.9 C 46 %
333 01-05-2020 07:23:17 7.8 C 46 %
334 01-05-2020 07:33:18 7.9 C 46 %
335 01-05-2020 07:43:18 8.3 C 45 %
336 01-05-2020 07:53:17 8.1 C 41 %
337 01-05-2020 08:03:18 8.1 C 41 %
338 01-05-2020 08:13:18 8.4 C 41 %
339 01-05-2020 08:23:18 8.3 C 42 %
340 01-05-2020 08:33:18 8.3 C 44 %
341 01-05-2020 08:43:18 9 C 44 %
342 01-05-2020 08:53:17 9.2 C 42 %
343 01-05-2020 09:03:17 9.6 C 42 %
344 01-05-2020 09:13:17 9.7 C 42 %
345 01-05-2020 09:23:17 10.1 C 40 %
346 01-05-2020 09:33:17 10.4 C 38 %
347 01-05-2020 09:43:18 10.6 C 39 %
348 01-05-2020 09:53:18 10.5 C 38 %
349 01-05-2020 10:03:18 10.5 C 38 %
350 01-05-2020 10:13:18 10.6 C 37 %
Sensor: Nr:Datum:Temp:Feuchte:
Aussen-T/F 351 01-05-2020 10:23:17 10.5 C 37 %
352 01-05-2020 10:33:17 11 C 37 %
353 01-05-2020 10:43:17 11.5 C 36 %
354 01-05-2020 10:53:17 12.6 C 34 %
355 01-05-2020 11:03:17 12.5 C 33 %
356 01-05-2020 11:13:18 12.8 C 33 %
357 01-05-2020 11:23:17 12.7 C 32 %
358 01-05-2020 11:33:18 13.1 C 31 %
359 01-05-2020 11:43:18 13.1 C 31 %
360 01-05-2020 11:53:17 12.8 C 32 %
361 01-05-2020 12:03:17 12.1 C 32 %
362 01-05-2020 12:13:17 11.9 C 34 %
363 01-05-2020 12:23:17 12.1 C 33 %
364 01-05-2020 12:33:17 11.1 C 36 %
365 01-05-2020 12:43:17 10.7 C 38 %
366 01-05-2020 12:53:17 10.4 C 39 %
367 01-05-2020 13:03:18 10.3 C 38 %
368 01-05-2020 13:13:18 9.7 C 38 %
369 01-05-2020 13:23:17 10.5 C 38 %
370 01-05-2020 13:33:17 11.3 C 36 %
371 01-05-2020 13:43:17 12.4 C 34 %
372 01-05-2020 13:53:17 12.8 C 34 %
373 01-05-2020 14:03:17 12.3 C 33 %
374 01-05-2020 14:13:17 13.5 C 31 %
375 01-05-2020 14:23:18 14.7 C 28 %
Sensor: Nr:Datum:Temp:Feuchte:
Aussen-T/F 376 01-05-2020 14:33:18 14.2 C 27 %
377 01-05-2020 14:43:18 16.8 C 22 %
378 01-05-2020 14:53:17 19.6 C 20 %
379 01-05-2020 15:03:17 19.2 C 20 %
380 01-05-2020 15:13:17 20 C 20 %
381 01-05-2020 15:23:17 16.6 C 20 %
382 01-05-2020 15:33:17 14.9 C 25 %
383 01-05-2020 15:43:17 13.5 C 27 %
384 01-05-2020 15:53:17 11.7 C 34 %
385 01-05-2020 16:03:18 13.5 C 30 %
386 01-05-2020 16:13:18 18.5 C 24 %
387 01-05-2020 16:23:17 19 C 20 %
388 01-05-2020 16:33:18 18 C 20 %
389 01-05-2020 16:43:18 18.4 C 20 %
390 01-05-2020 16:53:17 17.1 C 22 %
391 01-05-2020 17:03:18 19.1 C 20 %
392 01-05-2020 17:13:18 18.3 C 20 %
393 01-05-2020 17:23:17 15.5 C 25 %
394 01-05-2020 17:33:17 14 C 28 %
395 01-05-2020 17:43:17 12.2 C 34 %
396 01-05-2020 17:53:17 12.3 C 35 %
397 01-05-2020 18:03:18 12.5 C 35 %
398 01-05-2020 18:13:18 12.1 C 35 %
399 01-05-2020 18:23:17 12.2 C 35 %
400 01-05-2020 18:33:18 12.8 C 35 %
Sensor: Nr:Datum:Temp:Feuchte:
Aussen-T/F 401 01-05-2020 18:43:18 13.8 C 34 %
402 01-05-2020 18:53:17 13.2 C 31 %
403 01-05-2020 19:03:18 12.7 C 34 %
404 01-05-2020 19:13:18 12.1 C 35 %
405 01-05-2020 19:23:18 11.7 C 36 %
406 01-05-2020 19:33:17 11.8 C 35 %
407 01-05-2020 19:43:17 11.8 C 35 %
408 01-05-2020 19:53:17 11.4 C 35 %
409 01-05-2020 20:03:17 11.3 C 35 %
410 01-05-2020 20:13:17 11.3 C 35 %
411 01-05-2020 20:23:17 11.5 C 34 %
412 01-05-2020 20:33:17 11.1 C 34 %
413 01-05-2020 20:43:17 10.5 C 36 %
414 01-05-2020 20:53:17 10.3 C 37 %
415 01-05-2020 21:03:18 10.3 C 37 %
416 01-05-2020 21:13:18 10.4 C 37 %
417 01-05-2020 21:23:17 10.2 C 37 %
418 01-05-2020 21:33:17 9.8 C 38 %
419 01-05-2020 21:43:17 9.3 C 39 %
420 01-05-2020 21:53:17 8.8 C 40 %
421 01-05-2020 22:03:18 9 C 40 %
422 01-05-2020 22:13:18 9 C 40 %
423 01-05-2020 22:23:17 9.2 C 39 %
424 01-05-2020 22:33:17 9.3 C 39 %
425 01-05-2020 22:43:17 9.3 C 40 %
Sensor: Nr:Datum:Temp:Feuchte:
Aussen-T/F 426 01-05-2020 22:53:18 9.5 C 39 %
427 01-05-2020 23:03:17 9.4 C 40 %
428 01-05-2020 23:13:17 9.3 C 40 %
429 01-05-2020 23:23:17 9.3 C 40 %
430 01-05-2020 23:33:17 9.4 C 40 %
431 01-05-2020 23:43:17 9.5 C 39 %
432 01-05-2020 23:53:17 9.4 C 40 %
Sensor: Nr:Datum:Temp:Feuchte:
G-T/H 1 29-04-2020 00:03:17 13.8 C 64 %
2 29-04-2020 00:13:17 13.8 C 64 %
3 29-04-2020 00:23:17 13.8 C 64 %
4 29-04-2020 00:33:18 13.8 C 64 %
5 29-04-2020 00:43:18 13.8 C 64 %
6 29-04-2020 00:53:18 13.8 C 64 %
7 29-04-2020 01:03:18 13.8 C 64 %
8 29-04-2020 01:13:18 13.8 C 64 %
9 29-04-2020 01:23:17 13.8 C 64 %
10 29-04-2020 01:33:17 13.8 C 64 %
11 29-04-2020 01:43:17 13.8 C 64 %
12 29-04-2020 01:53:17 13.8 C 64 %
13 29-04-2020 02:03:17 13.8 C 64 %
14 29-04-2020 02:13:17 13.8 C 64 %
15 29-04-2020 02:23:17 13.8 C 64 %
16 29-04-2020 02:33:18 13.8 C 64 %
17 29-04-2020 02:43:18 13.8 C 64 %
18 29-04-2020 02:53:17 13.8 C 64 %
19 29-04-2020 03:03:17 13.8 C 64 %
20 29-04-2020 03:13:17 13.8 C 64 %
21 29-04-2020 03:23:17 13.7 C 64 %
22 29-04-2020 03:33:17 13.8 C 64 %
23 29-04-2020 03:43:17 13.7 C 64 %
24 29-04-2020 03:53:17 13.7 C 64 %
25 29-04-2020 04:03:17 13.7 C 64 %
Sensor: Nr:Datum:Temp:Feuchte:
G-T/H 26 29-04-2020 04:13:17 13.7 C 64 %
27 29-04-2020 04:23:17 13.7 C 64 %
28 29-04-2020 04:33:17 13.7 C 64 %
29 29-04-2020 04:43:18 13.7 C 64 %
30 29-04-2020 04:53:17 13.7 C 64 %
31 29-04-2020 05:03:18 13.7 C 64 %
32 29-04-2020 05:13:18 13.7 C 64 %
33 29-04-2020 05:23:18 13.7 C 64 %
34 29-04-2020 05:33:17 13.7 C 64 %
35 29-04-2020 05:43:17 13.7 C 64 %
36 29-04-2020 05:53:17 13.7 C 64 %
37 29-04-2020 06:03:18 13.7 C 64 %
38 29-04-2020 06:13:18 13.7 C 64 %
39 29-04-2020 06:23:17 13.7 C 64 %
40 29-04-2020 06:33:17 13.7 C 64 %
41 29-04-2020 06:43:17 13.7 C 64 %
42 29-04-2020 06:53:17 13.6 C 64 %
43 29-04-2020 07:03:17 13.6 C 64 %
44 29-04-2020 07:13:17 13.6 C 64 %
45 29-04-2020 07:23:17 13.6 C 64 %
46 29-04-2020 07:33:17 13.6 C 64 %
47 29-04-2020 07:43:17 13.6 C 64 %
48 29-04-2020 07:53:17 13.6 C 64 %
49 29-04-2020 08:03:17 13.6 C 64 %
50 29-04-2020 08:13:17 13.6 C 64 %
Sensor: Nr:Datum:Temp:Feuchte:
G-T/H 51 29-04-2020 08:23:17 13.6 C 64 %
52 29-04-2020 08:33:17 13.6 C 64 %
53 29-04-2020 08:43:17 13.6 C 64 %
54 29-04-2020 08:53:17 13.6 C 64 %
55 29-04-2020 09:03:17 13.6 C 64 %
56 29-04-2020 09:13:17 13.6 C 64 %
57 29-04-2020 09:23:17 13.6 C 64 %
58 29-04-2020 09:33:17 13.6 C 64 %
59 29-04-2020 09:43:17 13.6 C 64 %
60 29-04-2020 09:53:17 13.6 C 64 %
61 29-04-2020 10:03:17 13.6 C 64 %
62 29-04-2020 10:13:17 13.6 C 64 %
63 29-04-2020 10:23:17 13.6 C 64 %
64 29-04-2020 10:33:17 13.6 C 64 %
65 29-04-2020 10:43:17 13.6 C 65 %
66 29-04-2020 10:53:17 13.6 C 65 %
67 29-04-2020 11:03:17 13.6 C 65 %
68 29-04-2020 11:13:17 13.6 C 65 %
69 29-04-2020 11:23:17 13.6 C 65 %
70 29-04-2020 11:33:18 13.6 C 65 %
71 29-04-2020 11:43:18 13.6 C 65 %
72 29-04-2020 11:53:17 13.6 C 65 %
73 29-04-2020 12:03:18 13.7 C 65 %
74 29-04-2020 12:13:18 13.7 C 65 %
75 29-04-2020 12:23:17 13.7 C 65 %
Sensor: Nr:Datum:Temp:Feuchte:
G-T/H 76 29-04-2020 12:33:17 13.7 C 65 %
77 29-04-2020 12:43:17 13.7 C 65 %
78 29-04-2020 12:53:17 13.7 C 65 %
79 29-04-2020 13:03:17 13.7 C 65 %
80 29-04-2020 13:13:17 13.7 C 65 %
81 29-04-2020 13:23:18 13.7 C 65 %
82 29-04-2020 13:33:18 13.7 C 65 %
83 29-04-2020 13:43:18 13.7 C 65 %
84 29-04-2020 13:53:18 13.8 C 65 %
85 29-04-2020 14:03:18 13.8 C 65 %
86 29-04-2020 14:13:18 13.8 C 65 %
87 29-04-2020 14:23:18 13.8 C 65 %
88 29-04-2020 14:33:17 13.8 C 65 %
89 29-04-2020 14:43:17 13.8 C 65 %
90 29-04-2020 14:53:17 13.8 C 65 %
91 29-04-2020 15:03:17 13.8 C 65 %
92 29-04-2020 15:13:17 13.9 C 65 %
93 29-04-2020 15:23:17 13.9 C 65 %
94 29-04-2020 15:33:17 13.9 C 65 %
95 29-04-2020 15:43:17 13.9 C 65 %
96 29-04-2020 15:53:17 13.9 C 65 %
97 29-04-2020 16:03:17 13.9 C 65 %
98 29-04-2020 16:13:17 14 C 64 %
99 29-04-2020 16:23:17 14 C 65 %
100 29-04-2020 16:33:17 14 C 65 %
Sensor: Nr:Datum:Temp:Feuchte:
G-T/H 101 29-04-2020 16:43:17 14 C 65 %
102 29-04-2020 16:53:17 14 C 65 %
103 29-04-2020 17:03:17 14 C 65 %
104 29-04-2020 17:13:17 14 C 65 %
105 29-04-2020 17:23:17 14.1 C 65 %
106 29-04-2020 17:33:17 14.1 C 65 %
107 29-04-2020 17:43:17 14.1 C 65 %
108 29-04-2020 17:53:17 14.1 C 65 %
109 29-04-2020 18:03:17 14.1 C 65 %
110 29-04-2020 18:13:18 14.1 C 65 %
111 29-04-2020 18:23:17 14.1 C 65 %
112 29-04-2020 18:33:17 14.1 C 65 %
113 29-04-2020 18:43:17 14.2 C 65 %
114 29-04-2020 18:53:17 14.1 C 65 %
115 29-04-2020 19:03:18 14.2 C 65 %
116 29-04-2020 19:13:18 14.2 C 65 %
117 29-04-2020 19:23:17 14.2 C 65 %
118 29-04-2020 19:33:17 14.2 C 65 %
119 29-04-2020 19:43:18 14.2 C 65 %
120 29-04-2020 19:53:17 14.3 C 65 %
121 29-04-2020 20:03:18 14.3 C 65 %
122 29-04-2020 20:13:18 14.2 C 65 %
123 29-04-2020 20:23:18 14.2 C 65 %
124 29-04-2020 20:33:17 14.2 C 65 %
125 29-04-2020 20:43:17 14.2 C 65 %
Sensor: Nr:Datum:Temp:Feuchte:
G-T/H 126 29-04-2020 20:53:18 14.2 C 65 %
127 29-04-2020 21:03:18 14.2 C 65 %
128 29-04-2020 21:13:18 14.2 C 65 %
129 29-04-2020 21:23:17 14.2 C 65 %
130 29-04-2020 21:33:17 14.2 C 65 %
131 29-04-2020 21:43:17 14.2 C 65 %
132 29-04-2020 21:53:17 14.2 C 65 %
133 29-04-2020 22:03:18 14.2 C 65 %
134 29-04-2020 22:13:18 14.2 C 65 %
135 29-04-2020 22:23:17 14.2 C 65 %
136 29-04-2020 22:33:17 14.2 C 65 %
137 29-04-2020 22:43:17 14.2 C 65 %
138 29-04-2020 22:53:18 14.2 C 65 %
139 29-04-2020 23:03:18 14.2 C 65 %
140 29-04-2020 23:13:18 14.2 C 65 %
141 29-04-2020 23:23:17 14.2 C 65 %
142 29-04-2020 23:33:17 14.2 C 65 %
143 29-04-2020 23:43:17 14.3 C 65 %
144 29-04-2020 23:53:18 14.2 C 65 %
145 30-04-2020 00:03:17 14.2 C 65 %
146 30-04-2020 00:13:17 14.2 C 65 %
147 30-04-2020 00:23:17 14.2 C 65 %
148 30-04-2020 00:33:17 14.2 C 65 %
149 30-04-2020 00:43:17 14.2 C 65 %
150 30-04-2020 00:53:17 14.2 C 65 %
Sensor: Nr:Datum:Temp:Feuchte:
G-T/H 151 30-04-2020 01:03:17 14.2 C 65 %
152 30-04-2020 01:13:17 14.3 C 65 %
153 30-04-2020 01:23:17 14.2 C 65 %
154 30-04-2020 01:33:17 14.2 C 65 %
155 30-04-2020 01:43:17 14.2 C 65 %
156 30-04-2020 01:53:17 14.2 C 65 %
157 30-04-2020 02:03:17 14.2 C 65 %
158 30-04-2020 02:13:17 14.2 C 65 %
159 30-04-2020 02:23:17 14.2 C 65 %
160 30-04-2020 02:33:17 14.2 C 65 %
161 30-04-2020 02:43:17 14.2 C 65 %
162 30-04-2020 02:53:17 14.2 C 65 %
163 30-04-2020 03:03:17 14.2 C 65 %
164 30-04-2020 03:13:17 14.2 C 65 %
165 30-04-2020 03:23:17 14.2 C 65 %
166 30-04-2020 03:33:17 14.2 C 65 %
167 30-04-2020 03:43:18 14.2 C 65 %
168 30-04-2020 03:53:17 14.1 C 65 %
169 30-04-2020 04:03:17 14.1 C 65 %
170 30-04-2020 04:13:17 14.2 C 65 %
171 30-04-2020 04:23:17 14.2 C 65 %
172 30-04-2020 04:33:18 14.1 C 65 %
173 30-04-2020 04:43:18 14.1 C 65 %
174 30-04-2020 04:53:17 14.1 C 65 %
175 30-04-2020 05:03:17 14.1 C 65 %
Sensor: Nr:Datum:Temp:Feuchte:
G-T/H 176 30-04-2020 05:13:17 14.1 C 65 %
177 30-04-2020 05:23:17 14.1 C 65 %
178 30-04-2020 05:33:17 14.1 C 65 %
179 30-04-2020 05:43:17 14.1 C 65 %
180 30-04-2020 05:53:18 14.1 C 65 %
181 30-04-2020 06:03:17 14.1 C 65 %
182 30-04-2020 06:13:18 14.1 C 65 %
183 30-04-2020 06:23:17 14 C 65 %
184 30-04-2020 06:33:17 14 C 65 %
185 30-04-2020 06:43:17 14.1 C 65 %
186 30-04-2020 06:53:17 14.1 C 65 %
187 30-04-2020 07:03:17 14 C 65 %
188 30-04-2020 07:13:17 14 C 65 %
189 30-04-2020 07:23:17 14 C 65 %
190 30-04-2020 07:33:17 14 C 65 %
191 30-04-2020 07:43:17 14 C 65 %
192 30-04-2020 07:53:17 14 C 65 %
193 30-04-2020 08:03:17 14 C 65 %
194 30-04-2020 08:13:17 14 C 65 %
195 30-04-2020 08:23:17 14 C 65 %
196 30-04-2020 08:33:17 14 C 65 %
197 30-04-2020 08:43:17 14 C 65 %
198 30-04-2020 08:53:17 14 C 65 %
199 30-04-2020 09:03:17 13.9 C 66 %
200 30-04-2020 09:13:17 14 C 65 %
Sensor: Nr:Datum:Temp:Feuchte:
G-T/H 201 30-04-2020 09:23:18 14 C 65 %
202 30-04-2020 09:33:17 14 C 65 %
203 30-04-2020 09:43:17 14 C 65 %
204 30-04-2020 09:53:17 14 C 65 %
205 30-04-2020 10:03:17 14 C 65 %
206 30-04-2020 10:13:17 13.9 C 66 %
207 30-04-2020 10:23:17 14 C 65 %
208 30-04-2020 10:33:17 14 C 65 %
209 30-04-2020 10:43:17 13.9 C 66 %
210 30-04-2020 10:53:18 14 C 65 %
211 30-04-2020 11:03:18 14 C 65 %
212 30-04-2020 11:13:18 13.9 C 66 %
213 30-04-2020 11:23:17 14 C 65 %
214 30-04-2020 11:33:17 13.9 C 66 %
215 30-04-2020 11:43:17 14 C 65 %
216 30-04-2020 11:53:17 14 C 65 %
217 30-04-2020 12:03:18 14 C 65 %
218 30-04-2020 12:13:18 13.9 C 66 %
219 30-04-2020 12:23:17 14 C 65 %
220 30-04-2020 12:33:17 14 C 65 %
221 30-04-2020 12:43:17 14 C 66 %
222 30-04-2020 12:53:18 14 C 65 %
223 30-04-2020 13:03:17 13.9 C 66 %
224 30-04-2020 13:13:17 14 C 65 %
225 30-04-2020 13:23:17 14 C 65 %
Sensor: Nr:Datum:Temp:Feuchte:
G-T/H 226 30-04-2020 13:33:17 14 C 65 %
227 30-04-2020 13:43:17 14 C 65 %
228 30-04-2020 13:53:17 14 C 65 %
229 30-04-2020 14:03:18 14 C 65 %
230 30-04-2020 14:13:18 14 C 65 %
231 30-04-2020 14:23:17 14 C 65 %
232 30-04-2020 14:33:18 14 C 65 %
233 30-04-2020 14:43:18 14 C 65 %
234 30-04-2020 14:53:17 14.1 C 65 %
235 30-04-2020 15:03:18 14 C 65 %
236 30-04-2020 15:13:18 14.1 C 65 %
237 30-04-2020 15:23:17 14.1 C 65 %
238 30-04-2020 15:33:17 14.1 C 65 %
239 30-04-2020 15:43:17 14.1 C 65 %
240 30-04-2020 15:53:18 14.1 C 65 %
241 30-04-2020 16:03:17 14.1 C 65 %
242 30-04-2020 16:13:17 14.1 C 65 %
243 30-04-2020 16:23:17 14.1 C 65 %
244 30-04-2020 16:33:17 14.1 C 65 %
245 30-04-2020 16:43:18 14.1 C 65 %
246 30-04-2020 16:53:17 14.1 C 65 %
247 30-04-2020 17:03:17 14.2 C 65 %
248 30-04-2020 17:13:17 14.2 C 65 %
249 30-04-2020 17:23:18 14.2 C 65 %
250 30-04-2020 17:33:17 14.1 C 65 %
Sensor: Nr:Datum:Temp:Feuchte:
G-T/H 251 30-04-2020 17:43:17 14.2 C 65 %
252 30-04-2020 17:53:17 14.2 C 65 %
253 30-04-2020 18:03:17 14.1 C 65 %
254 30-04-2020 18:13:18 14.1 C 65 %
255 30-04-2020 18:23:17 14.2 C 65 %
256 30-04-2020 18:33:17 14.1 C 65 %
257 30-04-2020 18:43:17 14.2 C 65 %
258 30-04-2020 18:53:17 14.2 C 65 %
259 30-04-2020 19:03:18 14.1 C 65 %
260 30-04-2020 19:13:18 14.2 C 65 %
261 30-04-2020 19:23:17 14.1 C 65 %
262 30-04-2020 19:33:18 14.2 C 65 %
263 30-04-2020 19:43:18 14.2 C 65 %
264 30-04-2020 19:53:17 14.2 C 65 %
265 30-04-2020 20:03:17 14.2 C 65 %
266 30-04-2020 20:13:17 14.2 C 65 %
267 30-04-2020 20:23:17 14.2 C 65 %
268 30-04-2020 20:33:18 14.1 C 65 %
269 30-04-2020 20:43:18 14.2 C 65 %
270 30-04-2020 20:53:17 14.1 C 65 %
271 30-04-2020 21:03:17 14.2 C 65 %
272 30-04-2020 21:13:17 14.1 C 65 %
273 30-04-2020 21:23:17 14.1 C 65 %
274 30-04-2020 21:33:17 14.1 C 65 %
275 30-04-2020 21:43:18 14.1 C 65 %
Sensor: Nr:Datum:Temp:Feuchte:
G-T/H 276 30-04-2020 21:53:17 14.1 C 65 %
277 30-04-2020 22:03:18 14.1 C 65 %
278 30-04-2020 22:13:18 14.1 C 65 %
279 30-04-2020 22:23:18 14.1 C 65 %
280 30-04-2020 22:33:17 14.1 C 65 %
281 30-04-2020 22:43:17 14.1 C 65 %
282 30-04-2020 22:53:18 14.1 C 65 %
283 30-04-2020 23:03:17 14.1 C 65 %
284 30-04-2020 23:13:17 14.1 C 65 %
285 30-04-2020 23:23:17 14 C 65 %
286 30-04-2020 23:33:17 14 C 65 %
287 30-04-2020 23:43:17 14 C 65 %
288 30-04-2020 23:53:17 14 C 65 %
289 01-05-2020 00:03:17 14 C 65 %
290 01-05-2020 00:13:17 14 C 65 %
291 01-05-2020 00:23:17 14 C 65 %
292 01-05-2020 00:33:18 14 C 65 %
293 01-05-2020 00:43:18 14 C 65 %
294 01-05-2020 00:53:17 14 C 65 %
295 01-05-2020 01:03:17 14 C 65 %
296 01-05-2020 01:13:18 13.9 C 65 %
297 01-05-2020 01:23:18 13.9 C 65 %
298 01-05-2020 01:33:18 13.9 C 65 %
299 01-05-2020 01:43:18 13.9 C 65 %
300 01-05-2020 01:53:17 13.9 C 65 %
Sensor: Nr:Datum:Temp:Feuchte:
G-T/H 301 01-05-2020 02:03:17 13.9 C 65 %
302 01-05-2020 02:13:18 13.8 C 65 %
303 01-05-2020 02:23:17 13.8 C 65 %
304 01-05-2020 02:33:17 13.8 C 65 %
305 01-05-2020 02:43:17 13.8 C 65 %
306 01-05-2020 02:53:17 13.8 C 65 %
307 01-05-2020 03:03:17 13.8 C 65 %
308 01-05-2020 03:13:18 13.7 C 65 %
309 01-05-2020 03:23:17 13.8 C 65 %
310 01-05-2020 03:33:17 13.7 C 65 %
311 01-05-2020 03:43:17 13.7 C 65 %
312 01-05-2020 03:53:18 13.7 C 64 %
313 01-05-2020 04:03:17 13.7 C 64 %
314 01-05-2020 04:13:17 13.7 C 64 %
315 01-05-2020 04:23:17 13.6 C 64 %
316 01-05-2020 04:33:17 13.7 C 64 %
317 01-05-2020 04:43:17 13.7 C 64 %
318 01-05-2020 04:53:17 13.6 C 64 %
319 01-05-2020 05:03:18 13.6 C 64 %
320 01-05-2020 05:13:18 13.6 C 64 %
321 01-05-2020 05:23:17 13.5 C 64 %
322 01-05-2020 05:33:18 13.5 C 64 %
323 01-05-2020 05:43:18 13.5 C 64 %
324 01-05-2020 05:53:17 13.5 C 64 %
325 01-05-2020 06:03:17 13.5 C 64 %
Sensor: Nr:Datum:Temp:Feuchte:
G-T/H 326 01-05-2020 06:13:17 13.5 C 64 %
327 01-05-2020 06:23:17 13.5 C 64 %
328 01-05-2020 06:33:17 13.5 C 64 %
329 01-05-2020 06:43:17 13.4 C 64 %
330 01-05-2020 06:53:17 13.4 C 64 %
331 01-05-2020 07:03:17 13.4 C 64 %
332 01-05-2020 07:13:17 13.4 C 64 %
333 01-05-2020 07:23:17 13.4 C 64 %
334 01-05-2020 07:33:18 13.4 C 64 %
335 01-05-2020 07:43:18 13.3 C 64 %
336 01-05-2020 07:53:17 13.3 C 64 %
337 01-05-2020 08:03:18 13.3 C 64 %
338 01-05-2020 08:13:18 13.3 C 64 %
339 01-05-2020 08:23:18 13.3 C 64 %
340 01-05-2020 08:33:18 13.3 C 64 %
341 01-05-2020 08:43:18 13.2 C 64 %
342 01-05-2020 08:53:17 13.2 C 64 %
343 01-05-2020 09:03:17 13.2 C 64 %
344 01-05-2020 09:13:17 13.2 C 64 %
345 01-05-2020 09:23:17 13.2 C 64 %
346 01-05-2020 09:33:17 13.2 C 65 %
347 01-05-2020 09:43:18 13.2 C 65 %
348 01-05-2020 09:53:18 13.2 C 65 %
349 01-05-2020 10:03:18 13.2 C 65 %
350 01-05-2020 10:13:18 13.1 C 65 %
Sensor: Nr:Datum:Temp:Feuchte:
G-T/H 351 01-05-2020 10:23:17 13.2 C 65 %
352 01-05-2020 10:33:17 13.2 C 65 %
353 01-05-2020 10:43:17 13.2 C 65 %
354 01-05-2020 10:53:17 13.2 C 65 %
355 01-05-2020 11:03:17 13.2 C 65 %
356 01-05-2020 11:13:18 13.1 C 65 %
357 01-05-2020 11:23:17 13.2 C 65 %
358 01-05-2020 11:33:18 13.1 C 65 %
359 01-05-2020 11:43:18 13.2 C 65 %
360 01-05-2020 11:53:17 13.2 C 65 %
361 01-05-2020 12:03:17 13.2 C 65 %
362 01-05-2020 12:13:17 13.2 C 65 %
363 01-05-2020 12:23:17 13.1 C 65 %
364 01-05-2020 12:33:17 13.2 C 65 %
365 01-05-2020 12:43:17 13.2 C 65 %
366 01-05-2020 12:53:17 13.2 C 65 %
367 01-05-2020 13:03:18 13.1 C 65 %
368 01-05-2020 13:13:18 13.2 C 65 %
369 01-05-2020 13:23:17 13.2 C 65 %
370 01-05-2020 13:33:17 13.2 C 65 %
371 01-05-2020 13:43:17 13.2 C 65 %
372 01-05-2020 13:53:17 13.2 C 65 %
373 01-05-2020 14:03:17 13.2 C 65 %
374 01-05-2020 14:13:17 13.2 C 65 %
375 01-05-2020 14:23:18 13.2 C 65 %
Sensor: Nr:Datum:Temp:Feuchte:
G-T/H 376 01-05-2020 14:33:18 13.3 C 65 %
377 01-05-2020 14:43:18 13.2 C 66 %
378 01-05-2020 14:53:17 13.3 C 66 %
379 01-05-2020 15:03:17 13.2 C 66 %
380 01-05-2020 15:13:17 13.2 C 66 %
381 01-05-2020 15:23:17 13.3 C 66 %
382 01-05-2020 15:33:17 13.3 C 66 %
383 01-05-2020 15:43:17 13.3 C 66 %
384 01-05-2020 15:53:17 13.3 C 66 %
385 01-05-2020 16:03:18 13.3 C 66 %
386 01-05-2020 16:13:18 13.3 C 66 %
387 01-05-2020 16:23:17 13.3 C 66 %
388 01-05-2020 16:33:18 13.3 C 66 %
389 01-05-2020 16:43:18 13.3 C 66 %
390 01-05-2020 16:53:17 13.4 C 66 %
391 01-05-2020 17:03:18 13.4 C 66 %
392 01-05-2020 17:13:18 13.4 C 66 %
393 01-05-2020 17:23:17 13.4 C 66 %
394 01-05-2020 17:33:17 13.4 C 66 %
395 01-05-2020 17:43:17 13.4 C 66 %
396 01-05-2020 17:53:17 13.4 C 66 %
397 01-05-2020 18:03:18 13.4 C 66 %
398 01-05-2020 18:13:18 13.4 C 66 %
399 01-05-2020 18:23:17 13.4 C 66 %
400 01-05-2020 18:33:18 13.4 C 66 %
Sensor: Nr:Datum:Temp:Feuchte:
G-T/H 401 01-05-2020 18:43:18 13.4 C 66 %
402 01-05-2020 18:53:17 13.4 C 67 %
403 01-05-2020 19:03:18 13.4 C 67 %
404 01-05-2020 19:13:18 13.4 C 67 %
405 01-05-2020 19:23:18 13.4 C 67 %
406 01-05-2020 19:33:17 13.4 C 66 %
407 01-05-2020 19:43:17 13.4 C 66 %
408 01-05-2020 19:53:17 13.4 C 66 %
409 01-05-2020 20:03:17 13.4 C 66 %
410 01-05-2020 20:13:17 13.4 C 66 %
411 01-05-2020 20:23:17 13.4 C 66 %
412 01-05-2020 20:33:17 13.4 C 66 %
413 01-05-2020 20:43:17 13.4 C 66 %
414 01-05-2020 20:53:17 13.4 C 66 %
415 01-05-2020 21:03:18 13.4 C 66 %
416 01-05-2020 21:13:18 13.4 C 66 %
417 01-05-2020 21:23:17 13.4 C 66 %
418 01-05-2020 21:33:17 13.4 C 66 %
419 01-05-2020 21:43:17 13.4 C 66 %
420 01-05-2020 21:53:17 13.4 C 66 %
421 01-05-2020 22:03:18 13.4 C 66 %
422 01-05-2020 22:13:18 13.4 C 66 %
423 01-05-2020 22:23:17 13.4 C 65 %
424 01-05-2020 22:33:17 13.4 C 65 %
425 01-05-2020 22:43:17 13.3 C 65 %
Sensor: Nr:Datum:Temp:Feuchte:
G-T/H 426 01-05-2020 22:53:18 13.3 C 65 %
427 01-05-2020 23:03:17 13.3 C 65 %
428 01-05-2020 23:13:17 13.3 C 65 %
429 01-05-2020 23:23:17 13.3 C 65 %
430 01-05-2020 23:33:17 13.3 C 65 %
431 01-05-2020 23:43:17 13.3 C 65 %
432 01-05-2020 23:53:17 13.3 C 65 %

Legende:
   Min
   Max


Maximal/Minimal-Werte vom 29.04.2020 - 01.05.2020

Sensor Min Max Avg
Temp
(Aussen-T/F)
6.8 °C
01-05-2020  07:03:17
22.7 °C
29-04-2020  15:13:17
12.44 °C
Feuchte
(Aussen-T/F)
20 %
29-04-2020  14:53:17
46 %
30-04-2020  20:53:17
34.97 %
Temp
(G-T/H)
13.1 °C
01-05-2020  10:13:18
14.3 °C
29-04-2020  19:53:17
13.79 °C
Feuchte
(G-T/H)
64 %
29-04-2020  00:03:17
67 %
01-05-2020  18:53:17
64.91 %

Die Daten stammen von einer Davis Vantage Pro 2 Wetter-Station und werden unter Linux mit der Software wview2wettercgi und aufbereitet. Alle Angaben erfolgen ohne Gewähr für ihre Vollständigkeit oder Richtigkeit.
Kontakt: Rainer Krienke krienke@uni-koblenz.de . Meine Webseiten an der Uni Koblenz oder privat.
Version: $Revision: 0.78 $